User: anonymous   Login
Location: Unspecified
(0.0000°N, 0.0000°E)
Time: 22:43:28
(UTC+00:00)
Language:

FAISAT-2V - Orbit

View from above orbital plane
View from above orbital plane
View from above satellite
View from above satellite

Ground track
Ground track

The orbit data is extracted from the following two-line orbital elements,

1 24954U 97052B   18265.62366985 +.00000055 +00000-0 +38081-4 0  9998
2 24954 082.9208 300.6812 0038772 338.1197 141.6121 13.79975766057406
Epoch (UTC): 22 September 2018 14:58:05
Eccentricity: 0.0038772
inclination: 82.9208°
perigee height: 935 km
apogee height: 992 km
right ascension of ascending node: 300.6812°
argument of perigee: 338.1197°
revolutions per day: 13.79975766
mean anomaly at epoch: 141.6121°
orbit number at epoch: 5740

The dashed part of the orbit path shows where the satellite is in the earth's shadow,  

DLR